Wind_Speed
21 21 21 22 22 23 23 23 23 22 21 20 20 20 19 19 19 19 19 19 19 19 20 20 20 20 20 20 20 21 21 21 21 21 21 22 22 21 22 22 21 21 21
22 22 22 22 23 23 23 23 22 22 21 21 20 20 19 19 19 19 19 19 19 19 19 20 20 20 21 21 21 21 21 22 22 21 22 22 22 21 21 22 22 22 22
22 22 22 22 23 22 22 21 20 20 20 20 20 19 19 19 19 18 18 18 19 19 20 20 21 21 21 22 22 22 22 22 22 22 22 22 22 22 22 22 22 22 22
23 22 22 22 22 22 21 20 19 19 19 19 19 19 19 19 19 18 18 19 20 20 20 21 21 21 22 22 23 23 23 23 23 22 22 22 23 23 22 23 23 23 23
23 22 22 22 21 21 21 21 20 19 19 19 19 19 19 19 20 19 19 20 20 20 20 21 22 22 22 23 23 24 24 24 24 23 22 22 23 23 25 25 25 25 24
23 23 22 21 21 21 21 21 20 20 20 20 20 20 20 20 21 21 21 21 21 21 21 22 22 22 23 23 24 24 25 25 25 25 24 24 24 25 25 26 25 25 25
23 23 22 22 22 22 22 22 21 21 21 20 21 21 21 21 22 22 22 23 23 23 23 23 23 23 24 25 25 25 25 26 26 26 27 26 26 26 26 27 26 25 25
23 23 23 22 22 22 22 22 22 22 22 22 22 23 23 22 23 23 23 24 24 24 24 24 25 25 26 26 26 27 27 27 28 28 28 28 28 28 28 28 28 27 27
23 23 23 23 23 23 23 23 23 23 24 24 25 24 25 24 24 24 24 24 25 26 26 26 26 26 27 27 27 27 27 28 29 29 29 29 29 30 30 29 29 28 27
24 24 24 23 23 24 24 24 24 25 25 25 25 25 25 25 25 26 26 25 25 26 27 28 28 29 29 29 29 29 29 29 29 30 30 31 31 31 31 31 31 31 30
24 24 25 25 25 24 25 25 26 26 26 26 26 26 26 26 27 27 28 28 28 28 28 28 29 30 30 30 30 31 30 30 31 31 31 32 32 32 32 33 33 33 32
25 25 25 25 26 26 26 26 27 27 27 27 28 27 27 28 28 29 29 29 29 30 29 29 29 30 30 30 31 31 32 32 32 33 32 32 32 32 32 32 32 33 33
26 26 26 26 26 27 27 27 27 28 28 28 28 29 29 29 29 29 29 29 30 31 31 31 31 30 30 31 31 31 32 33 33 33 33 32 32 32 32 32 32 33 33
27 27 26 26 27 27 27 27 27 28 28 29 29 29 29 30 29 29 30 30 30 31 31 32 32 32 31 31 31 32 32 32 32 32 32 32 32 32 31 32 32 33 34
27 26 26 27 27 27 27 27 28 29 30 29 29 29 30 30 30 31 31 31 32 32 32 32 32 32 31 31 32 32 32 32 32 32 33 33 33 33 33 33 33 33 33
27 27 27 27 27 27 27 28 28 29 30 30 30 31 31 31 32 32 32 32 32 32 32 32 33 33 33 32 32 32 32 32 33 33 33 33 34 34 34 35 35 34 34
27 27 27 27 28 28 28 28 28 29 29 30 31 31 32 32 33 33 32 32 32 32 32 32 33 33 33 33 32 33 32 32 33 33 34 34 35 35 35 35 35 35 35
28 28 29 29 29 29 29 29 30 30 30 30 31 32 32 32 32 32 32 32 32 32 32 32 32 32 33 33 33 33 33 33 33 33 34 35 35 36 36 36 36 36 37
29 30 30 30 30 30 30 30 31 31 31 31 31 31 31 31 31 31 31 32 32 32 32 32 32 33 33 33 33 34 34 34 34 34 34 35 35 36 37 37 37 37 37
30 30 31 31 31 31 31 30 30 30 30 30 30 30 31 31 31 31 31 31 31 32 33 33 33 33 33 33 34 34 34 35 35 35 35 36 36 37 37 38 38 38 38
29 30 31 32 32 33 32 31 29 29 30 30 30 30 31 31 31 31 31 31 31 32 32 33 33 33 34 34 34 35 35 35 35 36 36 37 38 38 38 38 38 38 38
30 30 31 32 32 33 32 31 30 29 29 29 30 30 30 31 31 31 31 32 32 33 33 34 34 34 34 35 35 35 36 37 37 37 37 38 38 39 38 38 38 39 39
31 31 31 32 32 31 31 31 31 30 30 30 30 30 31 31 32 32 32 32 33 33 34 34 34 35 36 36 36 36 37 37 37 37 37 37 38 38 38 38 38 38 38
31 31 31 31 31 31 31 30 30 30 31 31 31 31 31 31 31 32 32 32 33 33 33 34 35 36 36 37 37 37 37 37 37 37 37 37 37 37 37 37 37 37 37
30 30 30 31 31 31 31 30 30 30 31 31 31 31 31 31 31 31 32 32 33 33 33 34 34 35 35 36 36 36 36 37 36 36 36 36 36 36 36 36 37 37 37
29 29 29 29 29 29 30 30 29 30 30 30 30 30 30 30 30 31 31 32 33 33 33 33 33 33 34 34 35 35 36 36 36 37 37 36 36 36 36 36 36 36 36
Wind_Direction
290 291 289 287 286 286 284 284 284 282 281 279 278 276 276 275 275 274 270 266 264 262 262 261 261 263 261 260 261 261 262 264 266 268 269 269 270 270 270 271 272 274 275
290 290 288 287 287 286 286 284 281 280 277 276 276 274 273 273 273 272 270 266 265 265 266 265 264 265 263 262 262 262 262 264 266 266 268 268 269 270 271 273 274 275 277
292 290 287 286 286 286 285 283 279 279 279 277 275 272 270 271 272 271 271 269 268 268 266 265 264 265 264 263 263 263 264 266 268 268 268 268 269 271 273 274 274 275 278
294 291 287 285 285 284 283 283 280 279 279 279 276 272 270 271 270 270 271 271 271 270 268 265 264 267 268 266 264 264 265 265 266 269 269 269 269 271 273 274 273 274 275
292 290 288 286 284 281 279 280 279 278 277 277 276 276 274 272 272 272 273 272 272 271 270 267 267 268 268 268 267 265 265 265 265 267 268 269 270 271 272 272 272 272 272
292 291 291 288 284 281 278 277 277 277 278 278 278 277 277 276 274 271 272 272 272 273 273 271 271 270 270 271 270 268 268 267 266 267 268 269 271 270 271 272 272 272 270
293 291 289 288 284 281 279 277 277 277 278 279 279 278 276 276 274 272 272 272 272 272 273 273 273 272 273 272 271 270 269 269 269 269 270 270 271 271 272 272 271 271 271
291 291 290 288 285 281 279 278 277 277 278 279 279 277 275 274 274 273 273 271 270 271 271 272 272 272 272 272 272 271 269 268 268 268 270 271 271 272 272 272 272 270 269
289 288 289 288 285 283 280 278 277 276 276 277 277 276 276 275 274 274 275 274 271 272 272 272 273 273 272 272 272 271 270 268 269 269 272 272 273 273 273 273 272 271 269
289 288 287 285 285 282 280 278 277 276 276 276 276 277 276 276 275 274 273 272 272 272 272 273 273 273 272 272 272 271 270 268 268 270 271 271 271 271 273 272 270 270 269
290 289 287 285 284 283 281 279 278 278 277 276 276 276 276 275 274 275 273 272 272 272 273 273 273 274 273 272 272 271 269 269 269 269 270 269 269 269 270 271 271 270 269
290 290 289 286 284 283 282 280 279 279 278 277 276 275 276 276 275 275 275 275 274 272 272 273 273 274 273 272 272 272 270 269 270 271 270 269 268 268 269 269 270 269 268
289 289 288 287 287 285 282 280 279 279 278 277 277 276 276 276 276 277 277 276 274 273 272 272 273 274 274 273 273 272 271 270 270 270 270 270 269 269 269 268 268 269 269
289 289 289 289 289 289 286 282 280 279 279 278 277 277 277 277 276 277 278 276 275 274 272 273 273 274 274 273 273 272 272 272 271 270 269 269 269 268 268 269 268 268 269
289 288 288 289 290 290 288 286 283 281 279 279 278 277 278 278 278 277 277 277 276 275 274 274 273 274 274 273 273 273 273 271 270 269 268 268 267 267 268 270 269 268 267
288 288 288 289 290 290 288 286 286 284 282 280 279 278 278 278 278 278 278 278 278 276 275 275 274 273 273 273 273 273 272 271 270 269 269 268 268 268 269 270 270 269 268
287 288 289 290 290 290 289 287 285 285 285 283 280 280 280 281 279 279 278 278 277 276 276 277 276 275 274 273 273 273 272 271 270 269 268 268 268 268 269 269 269 269 269
288 288 289 290 291 291 290 288 287 285 285 284 283 281 281 281 281 281 280 279 278 278 278 278 278 277 276 275 274 273 272 271 271 270 269 269 270 270 270 270 269 269 269
289 290 291 291 292 292 291 290 288 287 286 284 283 283 283 282 283 282 281 280 279 278 278 278 278 277 277 276 275 274 273 272 271 270 271 271 271 271 271 271 271 270 270
290 291 291 292 292 292 292 292 290 288 288 286 284 284 284 284 285 284 282 281 280 279 278 278 278 278 277 277 277 276 275 274 272 271 271 272 271 272 272 272 272 271 271
292 292 293 293 293 292 292 291 290 289 288 287 286 286 286 286 286 285 282 281 281 281 280 279 279 278 277 276 277 276 275 274 273 273 273 272 272 272 273 273 272 271 271
295 295 295 295 295 293 291 290 290 292 291 289 288 287 286 287 288 287 285 283 281 281 281 281 280 279 278 277 277 277 276 275 274 274 273 274 274 273 274 273 273 272 271
296 296 296 295 295 294 292 291 291 291 291 291 290 289 289 288 288 288 287 284 282 281 281 281 281 280 279 278 278 278 277 276 276 275 274 275 275 275 275 274 274 272 271
296 297 297 297 297 295 294 294 293 292 292 292 292 291 291 290 290 290 289 287 284 282 282 281 280 281 280 279 279 278 277 277 276 275 275 275 275 275 275 274 274 272 271
297 298 298 297 297 296 295 295 294 293 293 292 292 292 291 290 290 291 290 290 287 285 284 284 283 283 282 281 280 278 277 276 275 275 275 275 275 274 274 275 274 273 271
299 299 300 299 299 298 298 297 297 296 295 294 293 292 291 290 290 290 290 290 289 287 286 285 286 285 283 282 281 279 278 277 276 275 275 275 275 275 274 274 274 272 271
Height
5784 5783 5781 5780 5779 5777 5776 5775 5775 5774 5773 5773 5772 5772 5772 5772 5773 5773 5774 5775 5777 5778 5779 5780 5781 5782 5783 5784 5785 5785 5786 5787 5788 5789 5789 5789 5790 5790 5790 5790 5790 5790 5790
5779 5778 5776 5774 5773 5771 5770 5769 5768 5768 5767 5767 5767 5767 5767 5767 5768 5768 5769 5770 5771 5772 5774 5775 5776 5776 5777 5778 5779 5779 5780 5781 5782 5783 5783 5783 5784 5784 5784 5784 5784 5784 5784
5774 5772 5770 5768 5767 5765 5764 5763 5762 5762 5762 5762 5762 5762 5762 5762 5763 5763 5764 5765 5766 5767 5768 5769 5770 5771 5771 5772 5772 5773 5774 5775 5775 5776 5777 5777 5777 5778 5778 5778 5778 5778 5778
5768 5766 5764 5762 5761 5759 5758 5758 5757 5757 5756 5756 5756 5757 5757 5757 5757 5758 5759 5760 5761 5761 5762 5763 5764 5764 5765 5765 5766 5767 5767 5768 5769 5770 5770 5771 5771 5771 5771 5772 5772 5772 5772
5761 5760 5758 5757 5755 5754 5753 5752 5752 5751 5751 5751 5751 5752 5752 5752 5752 5752 5753 5754 5755 5755 5756 5756 5757 5758 5758 5758 5759 5760 5761 5761 5762 5763 5763 5764 5764 5765 5765 5765 5765 5765 5765
5755 5754 5752 5751 5750 5749 5748 5747 5747 5746 5746 5746 5746 5746 5746 5746 5746 5747 5747 5748 5748 5749 5749 5750 5750 5751 5751 5751 5752 5752 5753 5754 5754 5755 5756 5757 5757 5757 5757 5757 5757 5758 5758
5749 5747 5746 5745 5744 5743 5742 5742 5741 5741 5741 5740 5740 5740 5740 5740 5740 5740 5741 5741 5742 5742 5743 5743 5743 5744 5744 5744 5744 5745 5745 5746 5747 5747 5748 5749 5749 5749 5749 5749 5749 5750 5750
5742 5741 5740 5739 5738 5737 5736 5736 5735 5735 5735 5735 5734 5734 5734 5734 5734 5734 5734 5734 5735 5735 5735 5736 5736 5736 5736 5737 5737 5737 5737 5738 5738 5739 5739 5740 5740 5740 5741 5741 5741 5741 5742
5736 5734 5733 5732 5731 5730 5729 5729 5729 5728 5728 5728 5727 5727 5727 5726 5726 5726 5726 5727 5727 5727 5728 5728 5728 5728 5728 5728 5728 5729 5729 5729 5729 5730 5730 5731 5731 5731 5732 5732 5732 5732 5733
5728 5727 5726 5725 5724 5723 5722 5722 5721 5721 5721 5721 5720 5719 5719 5719 5719 5718 5718 5719 5719 5720 5720 5720 5719 5719 5719 5719 5719 5719 5720 5720 5720 5721 5721 5721 5722 5722 5722 5723 5723 5723 5724
5721 5720 5719 5718 5717 5716 5715 5714 5714 5714 5713 5713 5712 5712 5711 5711 5711 5710 5710 5710 5710 5711 5711 5711 5710 5710 5710 5709 5709 5710 5710 5710 5710 5711 5711 5711 5712 5712 5713 5713 5713 5713 5714
5714 5713 5711 5710 5709 5708 5707 5706 5706 5705 5705 5705 5704 5704 5703 5702 5702 5702 5701 5701 5701 5701 5701 5701 5700 5700 5699 5699 5699 5699 5699 5700 5700 5700 5701 5701 5701 5702 5702 5703 5703 5703 5703
5706 5705 5703 5702 5701 5699 5698 5698 5697 5696 5696 5695 5695 5695 5694 5694 5693 5692 5692 5692 5691 5691 5691 5691 5690 5690 5689 5689 5689 5689 5689 5689 5689 5690 5690 5691 5691 5692 5692 5692 5692 5693 5693
5698 5697 5695 5694 5692 5691 5690 5689 5688 5687 5686 5686 5686 5685 5685 5684 5684 5683 5682 5681 5681 5680 5680 5680 5680 5679 5679 5679 5679 5679 5678 5678 5679 5679 5679 5680 5680 5681 5681 5681 5682 5682 5682
5690 5688 5687 5686 5684 5683 5681 5680 5679 5678 5677 5677 5676 5676 5675 5675 5674 5673 5672 5671 5670 5669 5669 5669 5669 5669 5669 5669 5669 5668 5668 5668 5668 5668 5669 5669 5669 5670 5670 5670 5671 5671 5672
5681 5680 5679 5677 5676 5674 5673 5672 5670 5669 5668 5667 5666 5665 5665 5664 5663 5663 5662 5661 5659 5659 5658 5658 5658 5658 5658 5658 5658 5658 5657 5657 5657 5657 5657 5658 5658 5659 5659 5659 5659 5660 5660
5673 5672 5670 5668 5667 5665 5664 5663 5662 5661 5659 5657 5656 5655 5655 5654 5653 5652 5651 5650 5649 5648 5648 5648 5647 5647 5647 5647 5647 5647 5646 5646 5646 5646 5646 5646 5647 5647 5647 5647 5647 5648 5648
5665 5663 5662 5660 5658 5656 5655 5653 5652 5651 5650 5648 5646 5645 5644 5643 5642 5641 5640 5639 5639 5638 5638 5637 5637 5636 5636 5636 5636 5636 5635 5635 5635 5634 5635 5635 5635 5635 5635 5635 5635 5635 5635
5657 5655 5653 5651 5649 5647 5646 5644 5642 5640 5639 5638 5637 5636 5634 5633 5632 5631 5630 5629 5629 5628 5628 5627 5626 5626 5625 5625 5624 5624 5624 5624 5623 5623 5623 5623 5623 5623 5623 5623 5622 5622 5622
5648 5646 5644 5642 5640 5638 5636 5634 5632 5630 5629 5628 5627 5626 5624 5623 5622 5621 5620 5619 5618 5618 5617 5616 5616 5615 5614 5614 5613 5613 5613 5612 5612 5612 5611 5611 5611 5611 5611 5610 5610 5609 5609
5639 5637 5635 5633 5631 5628 5626 5624 5622 5621 5619 5618 5616 5615 5614 5613 5612 5611 5609 5608 5608 5607 5606 5605 5605 5604 5603 5602 5602 5601 5601 5600 5600 5600 5599 5599 5599 5598 5598 5597 5597 5597 5597
5630 5628 5626 5623 5621 5619 5616 5614 5613 5611 5609 5608 5607 5605 5604 5602 5601 5600 5599 5598 5597 5596 5595 5594 5593 5592 5591 5591 5590 5589 5589 5588 5588 5587 5587 5586 5586 5585 5585 5584 5584 5583 5583
5621 5619 5617 5614 5612 5609 5607 5605 5603 5602 5600 5598 5597 5595 5594 5592 5591 5590 5588 5587 5586 5585 5584 5583 5582 5581 5579 5579 5578 5577 5576 5576 5575 5574 5573 5573 5573 5572 5572 5571 5571 5570 5570
5612 5610 5607 5605 5603 5600 5598 5596 5594 5592 5590 5589 5587 5585 5584 5582 5581 5579 5577 5576 5574 5573 5572 5571 5570 5569 5567 5566 5565 5564 5563 5563 5562 5561 5560 5560 5559 5559 5559 5558 5558 5558 5558
5604 5601 5599 5596 5594 5592 5589 5587 5585 5583 5581 5579 5577 5575 5573 5572 5570 5568 5567 5565 5563 5562 5560 5559 5557 5556 5555 5554 5552 5551 5550 5550 5549 5548 5548 5547 5547 5546 5546 5546 5545 5545 5545
5596 5593 5591 5588 5586 5583 5581 5578 5576 5573 5571 5569 5567 5565 5563 5562 5560 5558 5556 5554 5552 5550 5549 5547 5545 5544 5542 5541 5540 5539 5538 5537 5536 5535 5535 5534 5534 5533 5533 5533 5532 5532 5532